Wetbulb
59.90 60.49 59.60 59.03 58.56 58.40 58.02 58.34 58.84 59.72 59.98 59.59 59.41 59.18 58.98 59.11 59.09 57.89 57.54 56.53 53.20 53.40 46.83 47.49 46.53 38.42 37.42 34.14 35.82 34.78 32.82 32.04 29.62 29.10 31.12 31.45 31.29 31.73 32.47 31.75 33.91 32.38 33.28
56.62 58.21 58.87 60.31 60.06 59.07 58.32 58.47 59.01 59.48 60.02 59.85 59.21 58.62 58.35 58.74 58.14 56.03 55.81 53.86 51.72 50.62 47.42 43.50 41.51 38.20 35.77 36.25 35.34 34.59 33.88 32.92 32.19 28.99 29.37 29.50 30.05 31.71 31.46 30.74 31.61 32.32 31.42
51.24 53.51 54.56 55.43 58.12 59.23 59.73 59.49 59.37 59.16 59.48 58.45 58.88 58.18 57.92 57.98 56.35 54.95 55.33 53.16 51.14 50.85 48.53 42.93 40.58 38.71 36.19 35.54 34.93 33.89 33.67 33.38 32.42 29.24 28.02 29.11 29.73 30.47 29.59 30.16 30.13 30.40 31.14
42.61 43.23 45.74 48.46 51.30 53.24 54.66 56.13 57.27 58.33 58.81 58.50 58.52 58.37 57.03 55.51 53.70 53.12 52.50 51.07 48.86 48.34 46.53 44.57 43.41 39.90 39.85 36.66 33.81 33.55 32.87 31.78 30.55 29.12 27.68 27.45 28.82 29.02 28.88 28.61 27.51 28.48 28.41
42.95 42.65 42.84 43.38 45.67 47.70 48.67 50.03 50.93 51.52 53.02 53.02 52.45 51.42 51.57 50.52 50.37 50.01 50.15 49.01 47.24 45.38 42.45 41.62 40.93 38.47 38.21 36.37 34.63 33.12 32.40 30.85 29.58 29.21 29.17 28.45 26.75 27.98 28.47 27.86 27.97 27.87 26.98
42.70 42.58 42.76 42.41 42.96 44.69 44.51 43.25 43.24 43.24 43.73 43.37 42.33 42.48 43.53 45.98 44.29 43.37 44.39 44.43 41.84 39.84 37.62 36.88 34.84 33.34 36.26 37.68 35.99 35.51 34.45 31.87 30.66 29.36 29.05 28.70 28.34 27.37 27.64 27.57 27.17 25.05 23.04
40.84 39.13 38.71 38.65 40.16 39.63 39.27 39.81 39.45 39.79 39.55 39.22 39.71 39.50 39.69 39.74 40.67 41.50 39.84 38.59 37.31 37.11 35.52 33.76 32.86 33.28 34.16 34.93 35.99 36.10 35.17 35.61 34.35 31.80 30.02 28.96 27.91 28.56 28.85 25.78 26.24 25.19 24.90
37.98 37.49 37.07 37.36 36.48 36.70 38.34 37.93 36.41 36.15 36.78 37.18 37.43 37.25 37.09 36.75 39.27 40.61 37.96 36.50 35.45 34.82 34.25 33.54 32.73 32.15 33.17 33.18 33.45 32.76 32.39 32.79 32.82 32.12 31.14 29.72 30.06 31.38 30.42 28.83 27.45 25.77 26.10
36.35 36.25 35.83 35.37 31.08 34.38 35.23 36.09 37.01 34.88 33.69 34.08 32.80 33.74 33.39 33.66 37.28 39.19 36.86 33.24 32.72 32.17 32.32 32.83 32.88 32.68 34.27 35.18 32.39 31.68 31.39 30.68 34.37 34.70 33.82 34.14 34.35 33.87 31.37 28.56 25.01 22.94 21.93
33.60 34.36 34.27 32.70 30.67 34.72 34.26 33.09 31.46 31.86 31.71 31.36 32.10 32.28 32.31 33.07 36.14 38.42 35.56 32.38 31.82 30.66 30.92 31.02 31.74 32.24 35.01 35.33 32.29 31.67 29.41 30.05 29.42 27.62 29.05 32.26 32.92 32.04 33.89 30.84 28.48 23.56 21.47
30.78 30.07 29.53 29.86 33.16 33.27 32.80 31.25 31.65 31.59 31.20 31.79 31.30 31.56 31.95 32.12 33.77 37.99 35.98 32.27 31.82 30.58 30.06 29.72 31.25 34.25 34.87 35.21 33.11 30.69 30.63 29.69 30.60 28.25 28.21 27.91 28.22 29.10 30.76 32.07 31.35 29.06 25.41
26.65 28.43 30.59 32.41 32.20 32.41 32.88 31.67 31.76 31.86 31.56 30.72 30.79 30.17 30.22 30.60 33.48 36.99 36.10 33.46 33.88 31.22 30.28 30.31 31.15 34.05 34.24 34.86 33.22 32.51 32.60 30.99 29.19 28.00 27.86 27.29 27.35 27.75 28.55 29.17 29.69 30.67 30.62
24.52 28.58 28.23 29.77 31.93 32.10 32.39 31.41 30.65 31.22 30.50 29.48 28.99 29.05 28.39 29.70 31.53 36.23 35.88 33.95 33.99 30.49 30.40 30.75 32.57 34.06 34.09 34.25 34.53 33.04 30.84 29.13 28.55 28.21 27.62 27.57 28.17 28.84 28.84 28.59 28.14 28.41 28.91
21.89 22.14 21.61 21.88 20.88 28.33 30.08 29.89 31.14 29.80 29.11 28.52 28.59 28.55 27.98 28.82 30.13 31.28 32.02 32.35 31.67 30.91 30.93 31.05 31.98 32.92 33.28 32.35 31.41 32.53 30.66 30.16 29.02 28.18 27.78 27.88 27.33 26.95 27.10 27.53 26.78 27.11 25.97
20.70 20.60 20.46 19.85 17.49 18.66 21.23 23.72 27.56 28.65 30.28 30.06 30.03 29.67 28.11 27.71 29.86 32.55 31.72 31.00 30.50 30.07 29.43 29.40 28.75 28.90 28.92 28.75 28.35 29.00 30.05 29.19 27.94 28.37 25.51 25.07 25.01 25.59 25.43 25.51 25.74 24.16 23.47
20.11 19.98 18.84 18.78 17.42 17.70 16.70 18.34 28.16 30.79 31.90 32.39 32.58 28.57 22.85 30.05 31.52 33.62 33.97 32.88 32.09 31.83 23.74 23.11 25.27 26.06 25.57 26.03 25.75 24.28 26.11 24.99 26.20 25.14 24.19 24.08 23.36 23.03 22.86 23.13 23.97 22.97 22.02
16.81 17.33 17.21 17.68 16.97 14.50 13.25 13.35 14.79 20.76 29.13 31.77 31.84 31.49 31.40 31.17 31.56 32.47 33.64 34.48 34.05 32.76 23.72 23.54 21.60 19.14 19.65 18.59 19.29 20.13 22.42 23.92 24.25 23.39 22.84 21.56 21.92 20.92 20.94 20.95 21.50 21.01 19.68
12.28 12.68 11.51 9.94 10.14 10.46 10.48 10.10 8.65 10.03 10.58 20.75 25.72 28.69 29.33 29.61 29.80 30.25 30.95 31.88 28.76 30.66 26.83 22.78 15.44 14.83 15.89 16.95 18.11 20.91 23.04 21.45 20.65 20.45 19.74 19.02 18.51 18.14 17.06 17.15 17.72 17.65 17.31
11.28 10.55 7.28 7.76 7.80 8.84 9.01 9.93 8.22 8.05 7.00 18.23 21.96 20.10 20.13 28.31 30.06 29.91 29.95 26.66 25.64 25.15 25.82 25.70 23.31 17.73 14.85 17.11 17.14 19.08 20.56 19.78 18.69 17.41 16.69 15.80 14.91 14.01 13.05 14.59 15.21 15.21 14.81
7.24 11.63 8.00 5.82 8.68 8.72 9.51 8.95 10.20 8.27 6.64 5.19 6.09 6.98 9.11 13.53 22.01 25.45 26.56 26.30 25.55 25.11 24.93 24.31 20.98 18.37 17.25 18.30 17.22 16.31 15.74 13.95 14.58 14.54 13.82 13.46 13.28 13.05 12.11 11.93 12.48 12.27 12.25
4.33 5.34 5.80 6.37 5.13 2.28 2.10 6.09 8.42 4.82 5.00 4.10 4.81 7.14 25.76 21.27 17.10 7.82 11.35 13.28 13.28 12.73 13.96 14.51 13.98 12.75 12.76 11.65 11.82 11.99 12.31 12.81 13.47 12.92 12.38 12.00 11.64 10.39 11.22 12.06 11.62 10.92 10.56
0.48 0.48 0.70 -1.34 -0.07 3.74 0.29 0.47 -0.07 1.38 6.77 7.54 8.76 8.05 20.19 16.69 16.22 5.72 5.18 7.47 9.38 9.57 8.49 10.08 10.62 10.93 10.38 9.10 9.46 8.57 8.73 8.19 9.09 10.80 10.28 9.77 9.90 10.04 9.85 9.29 8.76 8.73 8.40
-0.47 -0.62 -0.78 -3.55 -4.60 -1.64 -0.70 -2.79 -2.97 -4.06 -2.79 -2.61 -1.16 2.28 0.65 -1.52 0.47 0.47 0.47 1.55 2.27 2.97 5.24 6.28 6.27 6.45 6.77 7.48 7.31 7.82 7.80 7.23 7.41 6.75 6.04 6.39 5.68 5.85 6.16 6.14 5.10 4.95 5.94
-2.65 -2.42 -1.00 -1.66 -1.32 -3.24 -4.63 -5.69 -4.97 -3.33 -4.79 -5.87 -8.05 -5.69 -4.24 -5.33 -5.33 -4.24 -2.61 -0.62 0.29 -1.88 -0.82 0.79 1.49 3.94 2.90 3.03 3.58 3.39 3.92 4.63 4.29 5.35 6.33 4.78 3.70 3.19 2.47 0.54 1.43 2.46 2.66
-4.15 -4.31 -3.43 -6.44 -7.87 -10.77 -8.95 -10.22 -9.14 -12.94 -11.31 -8.95 -8.05 -7.87 -8.05 -7.32 -6.78 -7.50 -8.23 -10.04 -8.59 -6.78 -4.06 -4.79 -4.42 -0.64 2.10 3.27 3.62 3.57 4.46 8.66 4.46 4.88 1.26 1.76 2.96 3.09 2.60 3.14 1.91 2.43 1.58
-5.90 -6.98 -7.34 -9.69 -10.22 -12.76 -13.67 -12.94 -11.67 -11.67 -11.67 -8.60 -9.50 -10.41 -10.59 -8.59 -6.24 -8.41 -8.77 -9.68 -6.24 -3.01 -2.51 -2.70 -1.81 -1.32 -0.94 0.45 2.67 5.08 5.28 7.66 5.89 6.67 1.92 1.05 -0.90 -0.89 -1.42 -0.42 0.60 1.82 0.82
MSLP
1012.31 1012.45 1012.86 1013.28 1013.62 1014.06 1014.33 1014.49 1014.64 1015.02 1015.20 1015.53 1015.81 1016.12 1016.33 1016.70 1017.07 1017.56 1017.78 1018.12 1018.51 1018.79 1019.20 1019.45 1019.75 1020.48 1021.23 1021.90 1022.70 1022.98 1023.07 1023.32 1025.07 1026.46 1026.76 1027.19 1027.62 1028.06 1028.35 1028.63 1028.82 1029.22 1029.29
1012.09 1012.31 1012.43 1012.73 1013.03 1013.39 1013.57 1013.66 1014.03 1014.33 1014.62 1014.76 1015.20 1015.53 1015.81 1016.12 1016.46 1016.82 1016.98 1017.35 1017.73 1018.08 1018.40 1019.01 1019.32 1019.93 1020.62 1021.28 1022.14 1022.87 1022.55 1023.04 1023.91 1025.17 1026.23 1026.70 1027.13 1027.69 1028.11 1028.20 1028.24 1028.62 1028.99
1011.95 1012.15 1012.37 1012.51 1012.61 1012.74 1012.98 1013.23 1013.43 1013.65 1013.90 1014.33 1014.71 1014.86 1015.03 1015.16 1015.56 1015.91 1016.13 1016.51 1016.89 1017.08 1017.48 1018.11 1018.48 1019.01 1019.61 1020.19 1020.84 1021.86 1022.17 1022.36 1022.90 1023.98 1025.34 1026.18 1026.61 1027.19 1027.85 1028.18 1028.26 1028.42 1028.62
1012.03 1012.20 1012.30 1012.39 1012.44 1012.52 1012.62 1012.79 1012.97 1013.12 1013.31 1013.60 1013.79 1014.03 1014.25 1014.51 1014.92 1015.22 1015.58 1015.85 1016.02 1016.43 1016.69 1017.17 1017.68 1018.14 1018.37 1019.34 1019.88 1020.68 1021.54 1022.56 1023.58 1023.77 1024.86 1025.74 1026.48 1027.14 1027.75 1028.43 1028.59 1028.68 1028.52
1012.02 1012.24 1012.28 1012.41 1012.41 1012.44 1012.53 1012.58 1012.66 1012.79 1012.89 1013.05 1013.40 1013.61 1013.83 1014.14 1014.34 1014.74 1015.23 1015.38 1015.54 1015.98 1016.53 1017.09 1017.58 1017.78 1018.76 1018.96 1019.93 1020.74 1020.68 1022.29 1022.48 1023.97 1024.97 1025.83 1026.43 1026.90 1027.24 1027.85 1028.08 1028.52 1028.43
1012.16 1012.36 1012.57 1012.68 1012.74 1012.96 1013.07 1013.18 1013.24 1013.36 1013.58 1013.65 1014.00 1014.22 1014.44 1014.55 1014.70 1014.95 1015.18 1015.57 1015.84 1016.10 1016.84 1017.44 1017.73 1018.27 1018.22 1019.29 1019.74 1020.50 1021.46 1021.88 1023.32 1024.11 1024.61 1025.01 1025.75 1026.24 1026.49 1027.16 1027.87 1028.32 1028.60
1012.35 1012.61 1012.81 1013.01 1013.29 1013.48 1013.49 1013.48 1013.68 1013.88 1014.06 1014.23 1014.20 1014.50 1014.60 1014.65 1014.76 1014.84 1015.19 1015.65 1015.97 1016.35 1016.68 1017.21 1017.82 1018.42 1018.89 1019.56 1019.63 1020.71 1021.37 1021.76 1022.78 1023.50 1023.67 1023.90 1024.70 1025.06 1025.78 1026.73 1027.33 1027.26 1027.66
1012.78 1013.06 1013.28 1013.53 1013.67 1013.84 1013.99 1014.09 1014.24 1014.34 1014.37 1014.36 1014.40 1014.60 1014.80 1014.79 1014.80 1014.95 1015.19 1015.50 1016.02 1016.47 1016.79 1017.06 1017.47 1018.03 1018.70 1019.54 1020.42 1021.36 1021.93 1021.85 1022.91 1023.41 1023.54 1023.36 1024.11 1024.57 1025.04 1025.67 1026.52 1026.96 1027.37
1013.44 1013.60 1013.81 1014.16 1014.41 1014.56 1014.61 1014.69 1014.67 1014.77 1014.86 1015.06 1015.15 1015.20 1015.26 1015.07 1015.02 1015.02 1015.51 1016.11 1016.51 1017.08 1017.52 1017.55 1017.85 1018.13 1018.67 1019.46 1020.16 1020.90 1021.90 1022.69 1022.77 1023.39 1023.08 1023.01 1023.70 1024.27 1024.74 1025.86 1026.18 1026.83 1027.09
1014.33 1014.35 1014.30 1014.51 1014.74 1014.77 1014.84 1015.06 1015.33 1015.42 1015.53 1015.45 1015.45 1015.42 1015.37 1015.37 1015.27 1015.40 1015.86 1016.23 1016.68 1017.01 1018.03 1018.29 1018.42 1018.67 1019.00 1019.29 1019.81 1020.65 1021.72 1022.23 1022.43 1022.99 1022.90 1022.95 1023.63 1024.11 1024.17 1024.63 1025.33 1026.01 1026.52
1015.02 1014.99 1015.04 1014.99 1015.02 1015.21 1015.25 1015.39 1015.56 1015.63 1015.69 1015.75 1015.77 1015.75 1015.64 1015.68 1015.41 1015.58 1015.84 1016.01 1016.17 1016.68 1017.29 1017.53 1017.56 1018.02 1018.49 1019.03 1019.54 1020.30 1020.85 1021.28 1022.31 1022.85 1022.64 1023.12 1023.67 1023.71 1023.61 1023.92 1024.07 1024.82 1025.26
1015.64 1015.63 1015.58 1015.47 1015.60 1015.75 1015.87 1015.97 1016.09 1016.16 1016.18 1016.30 1016.37 1016.41 1016.16 1015.86 1015.90 1015.93 1016.43 1016.48 1016.67 1017.27 1017.27 1017.36 1017.69 1017.89 1018.61 1018.45 1018.84 1019.66 1020.26 1020.60 1020.87 1021.56 1022.05 1022.38 1022.78 1022.93 1023.24 1023.19 1023.58 1023.71 1023.88
1016.29 1016.46 1016.49 1016.22 1016.21 1016.29 1016.34 1016.42 1016.53 1016.66 1016.76 1016.97 1017.18 1017.06 1017.00 1016.81 1016.49 1016.27 1016.35 1016.42 1016.72 1017.20 1017.22 1017.46 1018.16 1018.34 1019.04 1019.52 1019.74 1020.09 1020.56 1020.92 1021.22 1021.79 1021.95 1021.81 1022.08 1022.22 1022.72 1022.88 1022.79 1023.14 1023.32
1017.17 1017.14 1017.16 1017.17 1017.21 1017.01 1016.87 1016.79 1016.78 1016.93 1017.02 1017.10 1017.23 1017.15 1017.32 1017.37 1017.00 1016.96 1017.12 1017.35 1017.72 1017.94 1017.84 1018.06 1018.56 1018.56 1018.86 1019.11 1019.59 1019.88 1020.49 1020.98 1021.24 1021.31 1021.49 1021.84 1022.17 1022.17 1022.37 1022.29 1022.66 1022.93 1023.14
1017.89 1017.97 1018.04 1018.12 1018.12 1018.20 1018.09 1017.77 1017.63 1017.36 1017.24 1016.93 1016.93 1016.85 1017.17 1017.42 1017.17 1017.08 1017.29 1017.67 1017.97 1018.06 1018.28 1018.80 1019.14 1019.14 1019.31 1019.47 1019.84 1019.93 1020.22 1020.58 1020.69 1020.80 1021.26 1021.60 1021.76 1021.93 1021.84 1021.97 1022.17 1022.38 1022.46
1018.64 1018.70 1018.85 1018.91 1018.97 1018.97 1018.96 1018.96 1018.50 1018.16 1017.67 1017.59 1017.41 1017.41 1017.48 1017.24 1016.83 1016.71 1016.95 1017.58 1017.94 1018.25 1018.85 1019.60 1019.86 1019.75 1019.76 1020.01 1020.24 1020.39 1020.46 1020.71 1020.90 1021.15 1021.55 1021.87 1021.93 1021.77 1021.64 1022.07 1022.28 1022.17 1022.23
1019.26 1019.38 1019.50 1019.47 1019.69 1019.79 1019.70 1019.46 1019.57 1018.75 1018.49 1018.42 1018.28 1018.17 1017.98 1017.71 1017.64 1017.63 1017.68 1017.81 1018.22 1018.54 1018.83 1019.41 1019.74 1019.95 1020.07 1020.20 1020.28 1020.47 1020.72 1020.45 1020.56 1020.83 1021.01 1021.42 1021.66 1021.64 1021.89 1021.96 1022.05 1021.97 1021.85
1020.26 1020.33 1020.49 1020.63 1020.65 1020.53 1020.53 1020.51 1020.31 1019.92 1019.74 1019.23 1018.83 1018.51 1018.15 1018.03 1017.71 1017.48 1017.39 1017.62 1018.15 1018.49 1019.01 1019.52 1019.78 1019.94 1020.03 1020.19 1020.17 1020.02 1020.35 1020.68 1020.77 1020.86 1020.99 1021.24 1021.17 1021.44 1021.79 1021.89 1021.89 1021.77 1021.80
1020.47 1021.03 1021.35 1021.26 1021.35 1021.34 1021.23 1021.13 1020.89 1020.61 1020.40 1020.30 1019.68 1019.28 1019.01 1018.82 1018.41 1017.98 1017.84 1018.10 1018.55 1018.91 1019.15 1019.27 1019.42 1020.00 1020.06 1019.54 1019.82 1020.16 1020.36 1020.44 1020.50 1020.68 1020.89 1021.12 1021.22 1021.33 1021.68 1021.71 1021.90 1021.85 1021.76
1022.10 1021.69 1021.34 1021.86 1022.07 1021.91 1021.77 1021.68 1021.80 1021.60 1021.36 1021.14 1020.83 1020.65 1020.08 1019.74 1019.25 1019.02 1018.69 1018.81 1019.13 1019.38 1019.30 1019.61 1019.56 1019.53 1019.78 1019.74 1019.92 1020.06 1020.35 1020.52 1020.70 1020.79 1020.90 1020.93 1021.07 1021.19 1021.34 1021.51 1021.53 1021.47 1021.56
1023.34 1023.06 1022.73 1022.28 1022.31 1022.58 1022.79 1022.61 1022.47 1022.28 1022.06 1021.89 1021.61 1021.23 1020.19 1020.21 1020.39 1020.55 1020.50 1020.23 1020.32 1020.25 1020.14 1020.13 1020.23 1020.08 1020.04 1020.10 1020.27 1020.38 1020.45 1020.57 1020.70 1020.73 1020.78 1020.78 1020.93 1021.13 1021.24 1021.25 1021.34 1021.45 1021.47
1024.03 1023.89 1023.66 1023.79 1023.63 1023.33 1023.66 1023.58 1023.27 1023.02 1022.85 1022.60 1022.15 1021.55 1021.09 1020.84 1020.91 1021.22 1021.09 1020.93 1020.82 1020.67 1020.45 1020.44 1020.62 1020.76 1020.35 1020.38 1020.41 1020.46 1020.57 1020.53 1020.56 1020.78 1020.81 1020.76 1020.93 1020.93 1021.10 1021.08 1021.12 1021.29 1021.40
1024.78 1024.66 1024.60 1024.65 1024.33 1024.05 1023.82 1023.76 1023.78 1023.68 1023.54 1023.36 1023.07 1022.84 1022.26 1022.23 1022.11 1021.77 1021.58 1021.67 1021.39 1021.24 1020.76 1020.67 1020.68 1020.75 1020.69 1020.51 1020.43 1020.37 1020.32 1020.41 1020.40 1020.64 1020.74 1020.69 1020.66 1020.77 1020.99 1021.02 1021.19 1021.36 1021.32
1025.44 1025.52 1025.44 1025.39 1025.17 1024.94 1024.79 1024.74 1024.62 1024.55 1024.32 1024.00 1023.75 1023.45 1023.01 1022.68 1022.56 1022.25 1022.02 1022.01 1021.77 1021.28 1021.00 1020.89 1020.93 1020.77 1020.51 1020.80 1020.56 1020.44 1020.42 1020.35 1020.22 1020.13 1020.39 1020.37 1020.54 1020.69 1020.91 1020.93 1021.16 1021.42 1021.21
1026.17 1025.94 1025.93 1026.06 1025.96 1025.81 1025.55 1025.33 1025.19 1024.97 1024.79 1024.50 1024.19 1023.61 1023.14 1022.75 1022.41 1022.10 1022.15 1022.22 1021.97 1021.66 1021.13 1020.99 1020.95 1020.57 1020.52 1020.49 1020.46 1020.37 1020.29 1020.11 1020.03 1019.95 1020.17 1020.35 1020.30 1020.41 1020.59 1020.66 1020.67 1020.83 1020.90
1026.33 1026.24 1026.10 1025.99 1026.06 1025.84 1025.64 1025.40 1025.11 1024.92 1024.73 1024.14 1023.76 1023.41 1023.00 1022.68 1022.38 1022.09 1022.00 1021.92 1021.68 1021.15 1020.85 1020.78 1020.51 1020.44 1020.30 1020.15 1019.91 1019.76 1019.71 1019.62 1019.70 1019.61 1019.78 1020.05 1020.18 1020.28 1020.51 1020.55 1020.44 1020.54 1020.52
Wind_Speed
11 13 13 13 15 15 15 14 16 14 14 14 15 15 16 16 16 14 15 13 13 12 8 12 13 6 5 3 3 2 4 5 5 1 3 4 6 7 6 5 5 4 3
6 7 8 10 11 13 14 16 14 14 13 15 14 14 14 14 13 14 15 11 14 13 13 9 10 7 9 8 7 9 6 4 5 6 3 3 4 6 5 5 4 3 4
5 6 6 7 8 11 13 12 13 12 12 10 11 14 15 15 13 13 14 13 13 14 13 13 13 13 12 9 9 9 5 4 3 5 5 3 2 3 3 2 2 2 3
4 6 7 7 7 7 6 7 7 9 11 11 12 14 12 11 10 12 12 11 12 11 12 13 14 14 15 14 12 9 7 6 2 4 3 4 3 3 3 2 2 2 3
4 4 6 5 5 5 6 6 6 6 6 6 6 6 5 6 7 10 10 12 11 10 8 8 8 9 8 11 8 9 11 6 6 3 3 2 2 3 4 3 3 2 3
3 3 2 1 2 2 3 4 4 4 3 3 2 3 4 3 4 5 5 6 5 6 6 3 5 7 11 14 12 13 9 9 5 3 2 4 3 3 3 4 3 2 3
2 1 1 3 2 2 2 3 3 2 2 1 2 0 3 3 2 5 6 3 5 6 6 7 6 5 9 8 14 13 12 13 7 5 7 4 5 7 7 4 4 3 4
3 2 1 1 3 2 1 1 1 1 0 0 1 2 3 4 5 7 8 4 3 4 6 8 9 10 9 9 6 7 6 5 3 4 5 5 3 6 7 6 6 3 1
3 2 1 2 2 2 1 0 2 3 3 3 3 3 2 3 4 6 6 4 3 2 3 4 6 7 12 15 9 8 5 2 7 8 7 9 9 9 8 5 3 3 2
5 4 2 2 4 2 1 3 2 2 2 2 3 3 3 3 4 6 6 3 4 5 4 4 8 8 16 17 9 9 9 9 7 4 3 5 6 6 12 7 6 5 3
4 5 5 4 4 4 3 3 2 3 3 3 3 3 3 2 3 8 10 3 5 5 6 6 6 18 19 17 13 9 9 9 10 4 3 3 3 5 5 9 9 8 6
5 6 5 5 4 3 4 3 3 3 3 3 3 3 3 2 2 6 7 3 6 3 4 4 6 17 17 19 16 17 17 12 8 7 6 6 6 6 7 7 7 9 8
6 6 5 5 5 4 3 3 3 3 3 3 3 3 3 4 2 5 9 7 8 2 2 5 10 14 14 14 17 15 10 5 6 6 7 6 7 6 5 4 5 7 9
6 6 4 5 4 4 3 2 2 1 1 1 1 1 1 2 1 2 1 2 4 1 2 2 6 8 9 6 4 9 6 6 7 6 5 4 3 3 6 4 4 5 6
5 5 5 4 4 4 4 3 3 2 1 0 1 1 2 2 2 4 5 2 1 2 4 2 1 2 3 3 3 3 5 5 6 5 3 3 4 5 4 3 4 3 5
5 4 4 3 3 3 3 4 9 10 9 5 4 1 2 4 4 7 10 6 6 9 3 1 1 3 4 5 5 5 4 3 2 1 2 4 5 4 3 4 5 6 7
6 5 4 5 4 3 3 3 3 6 9 14 12 12 12 10 10 6 4 5 6 9 2 1 2 1 1 1 1 2 2 2 2 4 5 5 4 3 4 5 5 5 6
6 7 4 2 3 3 3 2 2 2 2 3 8 9 10 8 6 2 3 2 2 4 1 2 3 3 3 3 4 4 3 3 4 4 4 4 4 4 4 5 4 6 5
4 3 3 2 2 2 3 3 3 3 2 3 5 7 8 12 7 4 1 2 1 0 1 2 3 3 3 3 3 2 3 4 3 4 4 4 3 3 5 5 5 6 5
5 8 5 3 4 4 4 3 3 3 3 3 3 3 4 5 4 4 3 1 1 2 2 4 3 2 2 2 1 1 2 2 3 4 3 3 3 4 5 5 5 5 5
4 4 5 4 5 4 3 4 3 3 2 2 2 3 10 2 2 2 3 3 3 3 3 2 2 2 1 1 1 2 2 3 3 3 3 4 4 4 5 5 4 4 4
4 4 4 4 3 4 3 2 2 3 4 3 3 4 12 3 3 2 3 3 3 2 1 1 2 2 1 2 2 2 3 3 3 3 3 3 3 4 4 4 4 4 4
4 4 4 3 3 3 4 4 3 3 3 3 3 4 3 3 3 3 3 4 3 3 2 2 1 2 2 2 2 2 3 3 3 3 3 3 3 3 3 3 3 3 4
4 5 4 4 3 4 4 4 4 4 4 3 3 3 2 2 3 4 3 4 3 3 3 3 2 3 2 3 2 2 2 2 2 3 4 4 4 3 2 3 3 3 2
4 3 3 2 3 3 3 3 2 2 2 2 3 3 3 3 3 3 4 3 3 3 4 3 3 4 5 6 5 5 5 7 3 4 2 3 5 6 3 3 3 4 4
2 2 2 2 2 2 2 3 3 3 3 4 3 4 3 4 4 4 4 4 3 3 4 4 4 7 7 5 6 7 7 8 7 7 4 4 4 3 3 4 6 5 4
Wind_Direction
212 214 213 216 218 220 221 221 221 221 217 212 212 214 216 217 219 219 224 223 219 219 197 197 205 172 171 158 175 193 162 143 132 143 126 173 168 165 173 175 173 169 199
201 208 213 218 215 217 221 225 224 226 223 222 219 220 222 222 216 216 222 214 215 212 208 196 196 163 169 170 175 218 179 158 140 155 141 148 166 185 170 163 163 179 195
211 212 224 222 220 223 227 226 226 222 225 220 221 218 220 218 212 216 219 216 220 217 207 198 197 187 192 187 194 186 175 156 154 136 142 165 126 151 148 122 154 200 216
216 215 227 226 218 224 231 232 225 223 220 221 219 224 219 211 212 216 217 216 212 217 213 210 206 201 202 200 185 174 154 146 139 116 96 121 111 101 93 127 202 207 234
231 233 243 247 247 248 245 239 235 220 220 209 207 211 209 207 206 206 221 223 217 218 209 211 208 216 216 175 168 184 147 167 145 146 108 95 134 142 173 178 197 179 264
236 249 281 280 16 20 31 36 46 55 55 65 29 355 319 311 317 245 222 220 222 197 204 170 119 125 152 165 153 163 181 150 141 138 149 167 169 143 135 156 155 173 268
178 154 116 95 92 68 79 78 70 68 62 38 53 326 242 234 246 210 178 192 175 181 173 162 153 158 155 176 158 162 167 168 155 181 188 166 156 175 146 160 175 164 193
106 101 68 114 144 134 88 90 127 150 105 353 295 268 273 277 248 226 190 167 183 184 174 171 168 158 161 143 137 133 153 154 165 197 180 159 137 154 167 162 184 165 356
53 33 22 25 45 77 69 343 14 355 2 352 1 336 304 311 270 225 162 121 128 128 152 154 165 151 152 147 142 144 129 138 184 188 165 149 168 166 162 145 147 130 228
12 358 30 127 161 181 77 65 41 50 32 15 358 357 319 305 278 208 163 126 131 119 87 80 114 126 151 157 155 163 183 198 179 173 162 179 198 210 201 197 174 185 170
4 29 34 34 36 40 60 46 54 51 52 34 19 354 340 305 300 193 169 156 154 144 160 159 162 163 172 185 164 181 200 153 186 184 151 154 196 208 212 214 195 199 195
39 49 37 34 43 47 63 49 48 54 45 20 359 350 349 340 269 200 171 147 160 164 186 173 176 181 190 190 179 190 191 171 170 175 183 199 210 219 228 211 208 210 221
61 53 40 35 40 40 57 55 42 27 15 1 343 342 340 338 337 206 157 161 179 170 136 178 184 189 199 200 200 193 188 172 173 187 208 214 217 211 208 208 200 219 226
63 50 41 51 38 30 47 54 79 76 37 29 322 341 340 312 8 60 69 157 236 305 170 165 193 185 187 177 178 186 191 197 202 212 213 226 182 184 217 196 222 218 227
57 44 40 41 39 32 28 19 13 326 295 333 264 188 193 248 247 203 166 163 85 90 78 72 150 172 186 178 195 206 198 195 207 214 205 204 213 213 220 190 212 193 230
67 46 41 43 30 39 31 356 10 24 25 1 345 92 310 288 288 215 198 192 169 156 71 113 224 196 206 214 216 218 220 218 239 168 224 236 237 232 232 225 234 230 243
56 37 32 37 34 21 15 55 33 336 26 34 35 26 19 13 3 335 293 219 191 172 111 198 227 230 239 226 186 199 231 203 158 212 215 218 226 224 224 229 231 232 238
41 44 55 35 31 42 32 19 9 47 24 355 357 13 12 3 353 324 271 311 106 206 148 183 231 215 199 199 190 182 204 196 207 214 217 215 204 216 229 244 239 241 241
86 59 28 48 50 57 45 37 34 32 32 353 352 352 1 353 2 7 282 120 131 217 308 236 191 221 224 182 186 198 213 220 209 208 217 214 205 189 232 239 241 240 242
21 33 58 49 24 29 34 42 21 17 4 351 340 295 326 7 3 355 4 23 151 213 242 261 234 212 219 201 190 177 204 203 217 217 218 211 206 206 226 229 229 238 237
15 19 20 43 48 34 27 25 359 26 7 336 307 312 347 342 352 336 336 352 351 344 334 332 306 267 249 249 234 228 231 236 226 224 221 218 210 223 228 232 232 233 246
26 26 33 35 8 39 20 13 28 20 7 354 343 339 358 13 6 338 330 320 302 298 303 309 301 289 263 229 221 219 229 227 223 228 230 217 213 215 209 210 214 223 223
22 25 22 12 19 15 27 21 16 11 354 341 337 339 353 350 334 334 330 310 320 324 335 345 317 300 308 297 256 217 223 237 227 205 215 213 197 196 199 208 196 211 219
26 23 22 15 15 19 20 5 352 355 348 341 339 330 328 324 317 315 315 317 327 324 329 324 307 290 314 280 282 271 254 246 215 210 212 193 201 197 185 180 189 221 217
12 13 17 3 3 351 343 346 329 316 313 313 315 310 293 294 307 313 304 308 297 294 289 281 258 265 271 276 275 275 271 278 247 222 206 203 211 206 201 203 194 208 217
334 326 310 309 316 324 315 297 292 291 289 289 280 281 281 288 284 282 280 282 282 286 283 273 274 274 274 266 265 263 253 254 246 235 196 196 201 214 203 212 216 227 216